When you browse on this site, cookies collect data to enhance your experience and personalize the content and advertising you see.
Visit our Privacy Policy to learn more. By continuing to use the site, you agree to this use of cookies and data.
  • In France
  • List of Countries
  • For 7 days
  • Water Temperature
  • Satellite Maps
  • Weather Map
  • Weather Widgets
  • user-avatar
    Login

    Hourly Weather Gold Coast

    Today, 10 December, Monday

    Time Temperature Precipitation Wind Pressure Humidity
    00:00 +20°C° 0 mm 3 mps 759 mmHg 93%
    01:00 +20°C° 0 mm 3 mps 758 mmHg 93%
    02:00 +20°C° 0 mm 3 mps 758 mmHg 94%
    03:00 +20°C° 0 mm 3 mps 758 mmHg 94%
    04:00 +19°C° 0 mm 2 mps 757 mmHg 95%
    05:00 +21°C° 0 mm 2 mps 758 mmHg 89%
    06:00 +23°C° 0 mm 2 mps 758 mmHg 82%
    07:00 +25°C° 0 mm 2 mps 758 mmHg 76%
    08:00 +26°C° 0.1 mm 2 mps 758 mmHg 69%
    09:00 +28°C° 0.1 mm 3 mps 758 mmHg 62%
    10:00 +29°C° 0 mm 2 mps 758 mmHg 56%
    11:00 +30°C° 0 mm 3 mps 758 mmHg 53%
    12:00 +30°C° 0 mm 3 mps 757 mmHg 51%
    13:00 +31°C° 0 mm 3 mps 757 mmHg 48%
    14:00 +31°C° 0 mm 3 mps 757 mmHg 49%
    15:00 +32°C° 0 mm 4 mps 756 mmHg 50%
    16:00 +30°C° 0 mm 4 mps 756 mmHg 54%
    17:00 +28°C° 0 mm 4 mps 756 mmHg 62%
    18:00 +26°C° 0 mm 4 mps 757 mmHg 70%
    19:00 +24°C° 0 mm 3 mps 757 mmHg 77%
    20:00 +22°C° 0 mm 3 mps 757 mmHg 82%
    21:00 +22°C° 0 mm 3 mps 758 mmHg 87%
    22:00 +21°C° 0 mm 2 mps 758 mmHg 91%
    23:00 +21°C° 0 mm 1 mps 758 mmHg 92%

    Tomorrow, 11 December, Tuesday

    Time Temperature Precipitation Wind Pressure Humidity
    00:00 +21°C° 0 mm 1 mps 758 mmHg 93%
    01:00 +21°C° 0 mm 1 mps 758 mmHg 94%
    02:00 +21°C° 0 mm 1 mps 757 mmHg 95%
    03:00 +21°C° 0 mm 1 mps 757 mmHg 95%
    04:00 +20°C° 0 mm 1 mps 757 mmHg 96%
    05:00 +22°C° 0 mm 1 mps 757 mmHg 89%
    06:00 +23°C° 0 mm 1 mps 758 mmHg 83%
    07:00 +25°C° 0 mm 1 mps 758 mmHg 77%
    08:00 +27°C° 0 mm 1 mps 758 mmHg 66%
    09:00 +29°C° 0 mm 2 mps 758 mmHg 56%
    10:00 +31°C° 0 mm 2 mps 758 mmHg 46%
    11:00 +31°C° 0 mm 3 mps 758 mmHg 44%
    12:00 +33°C° 0 mm 3 mps 757 mmHg 42%
    13:00 +33°C° 0 mm 4 mps 757 mmHg 41%
    14:00 +32°C° 0 mm 4 mps 756 mmHg 44%
    15:00 +30°C° 0 mm 4 mps 756 mmHg 48%
    16:00 +29°C° 0 mm 4 mps 756 mmHg 52%
    17:00 +28°C° 0 mm 4 mps 756 mmHg 60%
    18:00 +26°C° 0 mm 3 mps 756 mmHg 68%
    19:00 +24°C° 0 mm 3 mps 757 mmHg 76%
    20:00 +22°C° 0 mm 3 mps 757 mmHg 81%
    21:00 +22°C° 0 mm 3 mps 758 mmHg 85%
    22:00 +21°C° 0 mm 3 mps 759 mmHg 89%
    23:00 +21°C° 0 mm 2 mps 758 mmHg 91%

    Day after tomorrow, 12 December, Wednesday

    Time Temperature Precipitation Wind Pressure Humidity
    00:00 +20°C° 0 mm 2 mps 758 mmHg 92%
    01:00 +20°C° 0 mm 2 mps 757 mmHg 93%
    02:00 +21°C° 0 mm 1 mps 757 mmHg 93%
    03:00 +21°C° 0 mm 1 mps 756 mmHg 94%
    04:00 +21°C° 0 mm 1 mps 756 mmHg 94%
    05:00 +22°C° 0 mm 1 mps 756 mmHg 87%
    06:00 +24°C° 0 mm 1 mps 756 mmHg 79%
    07:00 +26°C° 0 mm 1 mps 757 mmHg 71%
    08:00 +27°C° 0 mm 1 mps 757 mmHg 64%
    09:00 +29°C° 0 mm 2 mps 756 mmHg 56%
    10:00 +30°C° 0 mm 2 mps 756 mmHg 49%
    11:00 +30°C° 0 mm 3 mps 756 mmHg 49%
    12:00 +30°C° 0 mm 3 mps 755 mmHg 49%
    13:00 +30°C° 0 mm 4 mps 755 mmHg 49%
    14:00 +30°C° 0 mm 4 mps 754 mmHg 51%
    15:00 +29°C° 0 mm 4 mps 754 mmHg 53%
    16:00 +29°C° 0 mm 4 mps 754 mmHg 55%
    17:00 +27°C° 0.2 mm 4 mps 754 mmHg 65%
    18:00 +25°C° 0.2 mm 4 mps 754 mmHg 75%
    19:00 +22°C° 0.2 mm 4 mps 754 mmHg 84%
    20:00 +22°C° 0 mm 4 mps 754 mmHg 85%
    21:00 +22°C° 0 mm 4 mps 754 mmHg 86%
    22:00 +22°C° 0 mm 4 mps 755 mmHg 87%
    23:00 +21°C° 0.1 mm 3 mps 755 mmHg 89%

    13 December, Thursday

    Time Temperature Precipitation Wind Pressure Humidity
    00:00 +21°C° 0.1 mm 3 mps 754 mmHg 91%
    01:00 +21°C° 0.1 mm 2 mps 754 mmHg 92%
    02:00 +21°C° 0 mm 2 mps 754 mmHg 92%
    03:00 +21°C° 0 mm 2 mps 753 mmHg 92%
    04:00 +21°C° 0 mm 3 mps 753 mmHg 91%
    05:00 +22°C° 0 mm 3 mps 753 mmHg 88%
    06:00 +22°C° 0 mm 4 mps 753 mmHg 84%
    07:00 +23°C° 0 mm 5 mps 753 mmHg 80%
    08:00 +27°C° 0 mm 5 mps 753 mmHg 69%
    09:00 +29°C° 0 mm 5 mps 753 mmHg 57%
    10:00 +33°C° 0 mm 5 mps 753 mmHg 46%
    11:00 +34°C° 0 mm 5 mps 752 mmHg 45%
    12:00 +34°C° 0 mm 6 mps 751 mmHg 43%
    13:00 +35°C° 0 mm 6 mps 750 mmHg 42%
    14:00 +34°C° 0.1 mm 7 mps 750 mmHg 48%
    15:00 +32°C° 0.1 mm 7 mps 749 mmHg 54%
    16:00 +31°C° 0.1 mm 8 mps 749 mmHg 60%
    17:00 +29°C° 0.1 mm 7 mps 749 mmHg 68%
    18:00 +27°C° 0.1 mm 7 mps 749 mmHg 76%
    19:00 +26°C° 0.1 mm 7 mps 749 mmHg 84%
    20:00 +26°C° 0.2 mm 6 mps 750 mmHg 85%
    21:00 +24°C° 0.2 mm 6 mps 750 mmHg 86%
    22:00 +24°C° 0.2 mm 6 mps 751 mmHg 87%
    23:00 +24°C° 0.1 mm 6 mps 751 mmHg 88%

    14 December, Friday

    Time Temperature Precipitation Wind Pressure Humidity
    00:00 +24°C° 0.1 mm 6 mps 750 mmHg 89%
    01:00 +24°C° 0.1 mm 6 mps 750 mmHg 90%
    02:00 +25°C° 0.1 mm 5 mps 749 mmHg 90%
    03:00 +23°C° 0.1 mm 5 mps 749 mmHg 90%
    04:00 +23°C° 0.1 mm 4 mps 749 mmHg 91%
    05:00 +25°C° 0.4 mm 4 mps 749 mmHg 91%
    06:00 +25°C° 0.4 mm 4 mps 750 mmHg 91%
    07:00 +25°C° 0.4 mm 4 mps 750 mmHg 91%
    08:00 +26°C° 1 mm 5 mps 750 mmHg 87%
    09:00 +27°C° 1 mm 5 mps 750 mmHg 84%
    10:00 +27°C° 1 mm 5 mps 750 mmHg 80%
    11:00 +28°C° 1.7 mm 5 mps 749 mmHg 77%
    12:00 +29°C° 1.7 mm 6 mps 749 mmHg 75%
    13:00 +29°C° 1.7 mm 6 mps 748 mmHg 72%
    14:00 +30°C° 0.7 mm 6 mps 748 mmHg 69%
    15:00 +30°C° 0.7 mm 6 mps 748 mmHg 66%
    16:00 +32°C° 0.7 mm 6 mps 748 mmHg 64%
    17:00 +29°C° 0.6 mm 6 mps 748 mmHg 72%
    18:00 +28°C° 0.6 mm 6 mps 748 mmHg 79%
    19:00 +27°C° 0.6 mm 6 mps 749 mmHg 87%
    20:00 +26°C° 3.1 mm 6 mps 749 mmHg 89%
    21:00 +26°C° 3.1 mm 6 mps 749 mmHg 90%
    22:00 +26°C° 3.1 mm 6 mps 750 mmHg 92%
    23:00 +26°C° 2.4 mm 6 mps 750 mmHg 91%

    15 December, Saturday

    Time Temperature Precipitation Wind Pressure Humidity
    00:00 +25°C° 2.4 mm 5 mps 749 mmHg 90%
    01:00 +25°C° 2.4 mm 5 mps 749 mmHg 90%
    02:00 +25°C° 0.8 mm 5 mps 749 mmHg 91%
    03:00 +25°C° 0.8 mm 4 mps 749 mmHg 92%
    04:00 +25°C° 0.8 mm 4 mps 749 mmHg 93%
    05:00 +25°C° 0 mm 4 mps 749 mmHg 91%
    06:00 +26°C° 0 mm 4 mps 750 mmHg 89%
    07:00 +27°C° 0 mm 4 mps 750 mmHg 87%
    08:00 +28°C° 0.1 mm 4 mps 750 mmHg 79%
    09:00 +29°C° 0.1 mm 5 mps 750 mmHg 72%
    10:00 +32°C° 0.1 mm 5 mps 750 mmHg 65%
    11:00 +32°C° 0 mm 5 mps 750 mmHg 63%
    12:00 +33°C° 0 mm 5 mps 750 mmHg 61%
    13:00 +33°C° 0 mm 5 mps 749 mmHg 58%
    14:00 +33°C° 0.1 mm 5 mps 749 mmHg 61%
    15:00 +32°C° 0.1 mm 5 mps 749 mmHg 64%
    16:00 +32°C° 0.1 mm 5 mps 749 mmHg 67%
    17:00 +30°C° 0.1 mm 5 mps 749 mmHg 73%
    18:00 +28°C° 0.1 mm 5 mps 750 mmHg 79%
    19:00 +27°C° 0.1 mm 4 mps 750 mmHg 85%
    20:00 +26°C° 0.2 mm 4 mps 751 mmHg 87%
    21:00 +26°C° 0.2 mm 4 mps 751 mmHg 90%
    22:00 +26°C° 0.2 mm 4 mps 752 mmHg 92%
    23:00 +25°C° 0.1 mm 4 mps 751 mmHg 92%
    Show more